TimeMST,TemperatureF,Dew PointF,Humidity,Sea Level PressureIn,VisibilityMPH,Wind Direction,Wind SpeedMPH,Gust SpeedMPH,PrecipitationIn,Events,Conditions,WindDirDegrees,DateUTC
12:53 AM,34.0,32.0,92,29.95,10.0,WSW,3.5,-,N/A,,Clear,240,2011-11-14 07:53:00
1:53 AM,30.9,30.0,96,29.96,10.0,NNW,4.6,-,N/A,,Clear,340,2011-11-14 08:53:00
3:53 AM,28.0,26.1,92,29.98,10.0,East,4.6,-,N/A,,Clear,90,2011-11-14 10:53:00
4:53 AM,28.0,25.0,88,29.97,10.0,Calm,Calm,-,N/A,,Clear,0,2011-11-14 11:53:00
5:53 AM,24.1,21.9,91,29.99,10.0,NNE,3.5,-,N/A,,Clear,30,2011-11-14 12:53:00
7:18 AM,24.8,21.2,86,29.98,10.0,ENE,4.6,-,N/A,,Mostly Cloudy,70,2011-11-14 14:18:00
7:53 AM,28.0,26.1,92,30.03,5.0,East,4.6,-,N/A,,Overcast,80,2011-11-14 14:53:00
8:03 AM,28.4,26.6,93,30.00,9.0,ENE,4.6,-,N/A,,Scattered Clouds,70,2011-11-14 15:03:00
8:18 AM,30.2,28.4,93,29.99,4.0,East,4.6,-,N/A,,Mostly Cloudy,90,2011-11-14 15:18:00
8:53 AM,30.0,28.0,92,30.04,10.0,NNE,3.5,-,N/A,,Overcast,30,2011-11-14 15:53:00
9:07 AM,30.2,28.4,93,30.00,10.0,NNE,3.5,-,N/A,,Overcast,20,2011-11-14 16:07:00
9:26 AM,30.2,30.2,100,30.01,10.0,Calm,Calm,-,N/A,,Overcast,0,2011-11-14 16:26:00
9:53 AM,32.0,30.9,96,30.02,10.0,Calm,Calm,-,N/A,,Overcast,0,2011-11-14 16:53:00
10:05 AM,33.8,32.0,93,30.02,10.0,Calm,Calm,-,N/A,,Mostly Cloudy,0,2011-11-14 17:05:00
10:13 AM,35.6,32.0,87,30.02,10.0,North,3.5,-,N/A,,Mostly Cloudy,10,2011-11-14 17:13:00
10:42 AM,37.4,32.0,81,30.01,10.0,ESE,3.5,-,N/A,,Partly Cloudy,120,2011-11-14 17:42:00
10:53 AM,37.9,32.0,79,30.00,10.0,Calm,Calm,-,N/A,,Mostly Cloudy,0,2011-11-14 17:53:00
11:03 AM,39.2,33.8,81,30.01,10.0,Variable,3.5,-,N/A,,Scattered Clouds,0,2011-11-14 18:03:00
11:53 AM,42.1,30.9,65,29.95,10.0,Calm,Calm,-,N/A,,Partly Cloudy,0,2011-11-14 18:53:00
12:53 PM,43.0,32.0,65,29.92,10.0,Variable,3.5,-,N/A,,Overcast,0,2011-11-14 19:53:00
2:53 PM,44.1,32.0,63,29.90,10.0,SW,16.1,23.0,0.00,,Clear,230,2011-11-14 21:53:00
3:53 PM,45.0,30.9,58,29.90,10.0,SW,12.7,-,N/A,,Clear,230,2011-11-14 22:53:00
4:53 PM,42.1,28.0,58,29.93,10.0,WSW,8.1,-,N/A,,Clear,240,2011-11-14 23:53:00
6:53 PM,37.9,28.9,70,30.00,10.0,SSW,4.6,-,N/A,,Clear,210,2011-11-15 01:53:00
7:53 PM,39.0,28.0,65,29.99,10.0,WSW,4.6,-,N/A,,Clear,250,2011-11-15 02:53:00
8:53 PM,33.1,25.0,72,30.03,10.0,Calm,Calm,-,N/A,,Clear,0,2011-11-15 03:53:00
9:53 PM,32.0,25.0,75,30.04,10.0,West,5.8,-,N/A,,Clear,280,2011-11-15 04:53:00
10:53 PM,28.0,23.0,81,30.04,10.0,Calm,Calm,-,N/A,,Clear,0,2011-11-15 05:53:00
11:53 PM,28.9,21.9,75,30.01,10.0,Calm,Calm,-,N/A,,Clear,0,2011-11-15 06:53:00